Location: Black Basin
(40.9721°N, 122.8911°W)
Time: 03:56:31
(UTC+00:00)

Daily predictions for brighter satellites

Satellite Brightness Start Highest point End
(mag) Time Altitude Azimuth Time Altitude Azimuth Time Altitude Azimuth
H-2A ROCKET BODY 4.2 03:01:30 10° SW 03:05:48 27° S 03:17:41 10° ESE
CZ-4B R/B 3.9 03:07:40 10° SE 03:12:50 38° ENE 03:17:59 10° N
Cosmos 2341 Rocket 4.5 03:07:48 10° N 03:13:44 41° ENE 03:19:33 10° SE
Cosmos 1733 Rocket 4.2 03:10:04 10° SSW 03:14:23 52° W 03:18:44 10° N
Meteor 2-11 Rocket 4.5 03:12:25 10° N 03:18:33 81° E 03:24:37 10° S
Cosmos 2082 Rocket 3.7 03:13:28 10° NW 03:18:47 41° WSW 03:24:03 10° S
Resurs 1-3 3.6 03:16:51 10° SSE 03:21:08 61° ENE 03:25:26 10° N
USA 234 3.4 03:16:45 10° ESE 03:23:14 68° NE 03:29:42 10° NW
NOSS 3-1 (C) 3.8 03:20:37 10° SSE 03:24:33 27° ESE 03:28:59 10° NE
Cosmos 1025 Rocket 3.7 03:22:57 10° N 03:26:59 35° ENE 03:31:00 10° SE
Okean O Rocket 2.5 03:27:30 10° SE 03:31:17 30° ENE 03:35:06 10° N
Cosmos 2366 rocket 4.3 03:27:02 10° N 03:33:09 47° ENE 03:39:14 10° SSE
YAOGAN 1 4.3 03:33:07 10° SSW 03:37:02 34° W 03:40:59 10° NNW
Resurs 01 Rocket 2.3 03:33:03 10° SE 03:37:03 35° ENE 03:41:05 10° N
Cosmos 1346 Rocket 2.8 03:33:37 10° S 03:37:19 51° E 03:41:03 10° NNE
CARTOSAT-1 4.4 03:35:19 10° SE 03:39:07 32° ENE 03:42:56 10° N
Cosmos 1975 Rocket 4.1 03:35:39 10° NNE 03:39:19 26° ENE 03:42:18 13° SE
SJ-6B 2.9 03:35:24 10° S 03:39:19 81° WSW 03:43:19 10° NNW
Cosmos 2218 Rocket 4.3 03:34:22 10° N 03:40:37 52° ENE 03:46:47 10° SSE
NOSS 2-3 (C) 4.4 03:37:20 10° SW 03:40:51 45° NW 03:44:40 10° NNE
Cosmos 1328 3.9 03:38:59 10° N 03:42:41 50° E 03:46:21 10° SSE
ATLAS 3B R/B 3.5 03:40:11 10° SSE 03:45:52 28° ESE 03:51:54 10° NE
NOSS 2-3 (D) 4.5 03:42:30 10° WSW 03:46:01 43° NW 03:49:49 10° NNE
Iridium 921 4.4 03:43:26 10° N 03:46:57 89° WSW 03:50:25 10° S
Cosmos 1302 Rocket 3.9 03:42:10 10° SSW 03:47:24 75° ESE 03:52:39 10° NNE
OAO 3 Rocket 3.8 03:43:05 10° WSW 03:47:40 42° S 03:51:07 17° ESE
Cosmos 1656 Rocket 4.3 03:43:02 10° SW 03:48:32 62° WNW 03:53:59 10° NNE
Cosmos 1892 2.7 03:46:45 10° N 03:50:20 75° W 03:53:51 10° S
USA 281 3.6 03:46:26 12° SE 03:52:08 47° ENE 03:58:22 10° NNW
USA 186 1.5 03:49:26 10° SSE 03:52:30 76° ENE 03:55:33 10° N
Cosmos 1782 Rocket 3.5 03:48:43 10° S 03:53:01 65° E 03:57:22 10° NNE
Meteor 1-21 Rocket 4.3 03:49:52 10° N 03:55:47 69° ENE 04:01:40 10° SSE
DELTA 2 R/B (1) 4.3 03:51:49 10° W 03:57:06 43° SSW 04:01:06 17° SE
SL-4 R/B 4.0 03:56:19 10° WNW 03:59:16 22° NNW 04:02:05 10° NE
Cosmos 1908 Rocket 4.4 03:55:34 10° SSW 03:59:46 52° W 04:04:01 10° N
CZ-4 R/B 2.2 03:56:14 10° S 04:00:06 50° W 04:03:55 10° NNW
Cosmos 1455 2.2 03:58:48 10° SSW 04:02:21 74° W 04:05:56 10° N
ATLAS 5 CENTAUR R/B 1.4 04:02:05 10° S 04:05:07 34° ESE 04:08:18 10° NE
SPOT 5 4.2 04:03:54 20° ESE 04:06:11 26° ENE 04:10:32 10° N
Cosmos 968 Rocket 3.9 04:01:25 10° NNW 04:06:29 64° WSW 04:11:31 10° S
Cosmos 864 Rocket 4.5 04:04:29 10° N 04:10:44 89° ENE 04:17:01 10° S
Cosmos 1953 3.8 04:10:11 10° SSW 04:13:44 37° WNW 04:17:18 10° N
Meteor 1-11 4.4 04:09:54 10° N 04:15:25 52° ENE 04:18:52 23° SE
ERS-1 Rocket 4.4 04:16:11 19° E 04:17:17 21° ENE 04:20:55 10° NNE
Feng Yun 1-1 Rocket 4.4 04:11:53 10° S 04:17:19 72° WSW 04:22:56 10° NNW
Cosmos 1300 Rocket 3.6 04:14:58 10° S 04:19:18 81° W 04:23:43 10° N
CSL-04 Debris 4.4 04:16:25 10° S 04:21:48 72° WSW 04:27:16 10° NNW
USA 129 3.5 04:23:06 10° N 04:25:30 32° WNW 04:25:52 29° W
SJ 16-02 1.6 04:23:57 10° NNW 04:28:15 66° WSW 04:30:56 22° S
Okean 2 Rocket 4.1 04:29:18 29° E 04:29:18 29° E 04:32:52 10° NNE
CZ-4C R/B 2.7 04:27:02 10° NNE 04:30:29 76° ESE 04:31:37 39° S
MOS 1 4.4 04:28:08 28° SE 04:31:04 59° ENE 04:36:40 10° N
CSL-04 Rocket 4.1 04:26:48 10° S 04:32:16 64° WSW 04:37:45 10° NNW
In-Cosmos 22 Rocket 4.1 04:27:31 10° N 04:32:58 87° E 04:36:36 22° S
IRS-1C Rocket 4.3 04:37:49 37° ESE 04:39:28 52° ENE 04:44:36 10° N
Cosmos 2297 Rocket 4.0 04:36:45 10° NNE 04:40:04 16° NE 04:41:24 15° ENE
Cosmos 2369 Rocket 4.1 04:36:34 10° WSW 04:41:33 31° WNW 04:46:34 10° N
Cosmos 1992 Rocket 4.2 04:36:44 10° SSW 04:41:55 73° WNW 04:47:09 10° NNE
BREEZE-M R/B 4.5 04:41:44 10° NNW 04:43:06 13° N 04:43:27 13° NNE
Cosmos 2098 Rocket 3.7 04:38:27 10° SSW 04:43:56 66° W 04:48:26 10° N
Sich 1 Rocket 4.0 04:45:03 42° ENE 04:45:03 42° ENE 04:48:49 10° NNE
Okean-O 2.5 04:43:30 39° S 04:45:06 85° W 04:49:32 10° NNW
Spot 2 Rocket 4.4 04:47:38 30° ENE 04:47:52 30° ENE 04:52:14 10° N
MetOp-B 4.1 04:46:22 42° SE 04:48:01 64° ENE 04:53:20 10° N
Terra 2.7 04:48:09 31° ENE 04:48:09 31° ENE 04:52:14 10° N
NOSS 3-1 (A) 2.8 04:46:35 10° SSW 04:51:18 65° ESE 04:56:50 10° NE
Hubble Space Telescope 3.3 04:51:14 10° SSW 04:51:24 10° SSW 04:51:24 10° SSW
USA 245 4.3 04:59:47 50° ESE 05:00:36 55° ENE 05:05:32 10° N
Landsat 4 4.4 05:01:53 41° N 05:01:53 41° N 05:04:20 10° N
Okean 1 Rocket 4.3 05:06:45 30° NE 05:06:45 30° NE 05:09:18 10° NNE
IRS-1A Rocket 4.3 05:03:42 49° SSE 05:05:22 78° ENE 05:11:16 10° NNW
USA 234 4.3 05:03:04 22° S 05:06:28 34° SW 05:12:20 10° WNW
Ariane Rocket 3.4 05:07:21 45° ENE 05:07:21 45° ENE 05:12:00 10° N
Okean O Rocket 3.7 05:04:11 10° SSW 05:07:33 23° W 05:11:04 10° NW
Resurs 01 Rocket 3.9 05:10:18 10° SW 05:13:34 20° W 05:16:53 10° NW
SPOT 3 Rocket 3.9 05:15:06 48° ENE 05:15:06 48° ENE 05:19:51 10° N
NOSS 3-1 (C) 4.4 05:10:22 10° WSW 05:14:57 39° NW 05:20:23 10° NNE
Cosmos 1241 Rocket 4.5 05:11:45 10° NNW 05:18:01 66° ENE 05:18:58 58° E
Cosmos 1486 Rocket 3.8 05:14:36 10° NNW 05:19:50 83° WSW 05:20:11 77° SSW
Iridium 4 Rocket 3.5 05:29:08 87° SE 05:29:12 88° E 05:34:54 10° N
ATLAS 3B R/B 3.2 05:29:07 10° SW 05:36:03 62° NW 05:43:32 10° NNE
USA 281 4.5 05:33:18 21° SSW 05:36:43 33° WSW 05:42:34 10° NW
SL-4 R/B 4.4 05:37:03 10° NNW 05:38:55 14° N 05:38:55 14° N
Cosmos 1605 Rocket 4.0 05:33:58 10° N 05:40:11 66° ENE 05:40:11 66° ENE
Cosmos 1932 4.3 05:36:33 10° NNW 05:42:48 79° ENE 05:42:50 79° ENE
SPOT 5 4.0 05:43:03 38° WSW 05:43:56 41° W 05:48:58 10° NNW
ATLAS 5 CENTAUR R/B 3.9 05:46:51 10° W 05:49:09 17° NW 05:51:37 10° N
ERS-1 Rocket 3.8 05:56:07 46° W 05:56:07 46° W 06:00:31 10° NNW
Cosmos 2227 Rocket 3.5 05:50:43 10° N 05:54:46 29° NE 05:54:46 29° NE
CZ-4C R/B 3.6 06:13:58 10° NNW 06:20:48 43° NE 06:21:29 42° ENE
Cosmos 2297 Rocket 3.0 06:19:13 10° NNW 06:23:12 47° NNW 06:23:12 47° NNW
Terra 3.8 06:26:51 24° WNW 06:26:51 24° WNW 06:29:39 10° NW
COSMOS 2455 3.6 06:22:42 10° NNW 06:27:12 49° N 06:27:12 49° N
USA 229 DEB 4.2 06:50:40 50° NNW 06:50:40 50° NNW 06:56:25 10° NNE
USA 229 4.2 06:50:53 49° NNW 06:50:53 49° NNW 06:56:33 10° NNE
Cosmos 2263 Rocket 3.9 06:54:21 10° N 06:57:20 26° NNE 06:57:20 26° NNE
CENTAUR R/B 3.8 06:53:48 10° NNW 07:01:46 47° NE 07:02:34 46° ENE
Cosmos 2227 Rocket 4.3 07:34:32 10° NW 07:36:34 21° NW 07:36:34 21° NW
Cosmos 1980 Rocket 4.1 07:44:27 25° N 07:44:27 25° N 07:46:48 10° NNE
CZ-4C R/B 4.0 08:02:15 10° NW 08:06:34 36° WNW 08:06:34 36° WNW
NOSS 3-2 (A) 4.5 08:05:31 10° NNW 08:11:21 58° NNW 08:11:21 58° NNW
Cosmos 2333 Rocket 4.4 08:34:50 18° NE 08:34:50 18° NE 08:36:23 10° NE
Cosmos 2360 Rocket 4.3 08:38:35 20° NE 08:38:35 20° NE 08:40:25 10° NE
Cosmos 2322 Rocket 4.1 08:48:27 25° NNE 08:48:27 25° NNE 08:50:44 10° NNE
CENTAUR R/B 4.1 08:44:30 10° NW 08:49:41 38° WNW 08:49:41 38° WNW
Cosmos 2219 Rocket 4.4 08:55:50 19° ENE 08:55:50 19° ENE 08:57:41 10° NE
SL-16 R/B 3.9 09:04:26 29° N 09:04:26 29° N 09:07:17 10° NNE
USA 215 3.9 08:57:43 10° NE 09:02:42 50° NNE 09:02:42 50° NNE
ADEOS II 4.4 09:15:36 10° NE 09:17:38 15° ENE 09:17:38 15° ENE
CZ-2D R/B 3.8 09:27:41 10° NNE 09:30:50 28° ENE 09:30:50 28° ENE
USA 267 4.0 09:39:07 43° NW 09:39:07 43° NW 09:43:21 10° NW
SL-16 R/B 4.3 09:36:56 17° ESE 09:40:06 26° ENE 09:45:03 10° N
COSMOS 2428 3.9 09:52:37 37° ENE 09:52:37 37° ENE 09:56:38 10° NE
CZ-2C R/B 3.6 09:58:45 45° NE 09:58:45 45° NE 10:03:23 10° N
Cosmos 2237 Rocket 4.2 09:58:31 18° ESE 09:58:47 18° E 10:02:34 10° ENE
Lacrosse 5 3.4 10:00:41 32° N 10:00:41 32° N 10:03:53 10° NE
ALOS 4.4 09:59:27 10° NE 10:02:16 19° E 10:02:16 19° E
CZ-2C R/B 4.3 10:00:32 10° NNE 10:04:32 38° ENE 10:04:32 38° ENE
Cosmos 2322 4.3 10:08:07 54° NE 10:08:07 54° NE 10:12:33 10° NNE
NPP 4.4 10:03:12 10° NNE 10:07:02 48° NNE 10:07:02 48° NNE
Resurs 1-4 Rocket 2.8 10:07:22 10° NNE 10:11:14 50° NNE 10:11:14 50° NNE
Cosmos 2333 Rocket 3.5 10:16:50 32° NNW 10:16:50 32° NNW 10:20:45 10° N
Cosmos 2360 Rocket 3.7 10:20:20 27° NW 10:20:20 27° NW 10:24:05 10° N
Molniya-1 4.5 10:24:18 64° NNE 10:24:18 64° NNE 10:31:56 10° NE
USA 238 4.5 10:17:58 10° NW 10:22:58 43° WNW 10:22:58 43° WNW
Cosmos 2279 Rocket 4.2 10:20:37 10° NNW 10:25:41 58° NW 10:25:41 58° NW
Cosmos 1538 Rocket 4.5 10:28:52 59° ENE 10:28:52 59° ENE 10:33:30 10° NNE
Nadezhda 4 Rocket 4.1 10:28:34 65° ESE 10:28:56 67° E 10:35:00 10° NNE
Cosmos 2322 Rocket 4.0 10:30:14 19° NW 10:30:14 19° NW 10:33:40 10° N
IDEFIX/ARIANE 42P 3.5 10:26:41 10° N 10:30:18 41° NNW 10:30:18 41° NNW
NOSS 0 Rocket 4.2 10:32:14 55° ESE 10:32:36 55° ESE 10:38:36 10° NNE
Cosmos 2278 Rocket 3.6 10:27:25 10° N 10:32:37 36° ENE 10:37:47 10° SE
Cosmos 2219 Rocket 3.1 10:37:32 37° NW 10:37:32 37° NW 10:41:55 10° N
ATLAS 5 CENTAUR R/B 4.4 10:42:32 22° SSE 10:42:32 22° SSE 10:45:43 10° SE
RESURS DK-1 3.9 10:39:59 34° NE 10:39:59 34° NE 10:42:28 10° NNE
Gbstr 26 Del rocket 4.3 10:45:08 35° NNE 10:45:08 35° NNE 10:47:48 10° NE
MSX 4.3 10:44:20 10° N 10:49:24 46° NW 10:49:24 46° NW
ADEOS II 2.2 10:53:42 10° N 10:58:31 59° NW 10:58:31 59° NW
Meteor 1-19 Rocket 4.4 11:02:23 49° SSE 11:04:02 74° E 11:10:02 10° NNE
Cosmos 923 Rocket 4.4 11:03:38 48° SSE 11:04:41 58° ESE 11:09:50 10° NNE
FENGYUN 3A 3.6 10:59:23 10° N 11:04:46 63° WNW 11:04:53 63° W
Cosmos 1092 Rocket 4.0 11:09:38 38° S 11:12:10 76° E 11:18:18 10° N
CZ-2D R/B 3.2 11:07:47 10° N 11:12:08 31° WNW 11:12:08 31° WNW
Envisat 3.8 11:07:41 10° NNE 11:12:34 46° E 11:15:01 26° SSE
Cosmos 1805 Rocket 3.4 11:12:47 10° N 11:17:01 83° NW 11:17:01 83° NW
Cosmos 1500 Rocket 3.7 11:13:16 10° NNW 11:17:04 59° NW 11:17:04 59° NW
UNK 3.5 11:18:31 75° SW 11:18:47 79° WSW 11:23:23 10° NNW
Cosmos 2026 Rocket 4.0 11:16:45 36° S 11:19:30 86° E 11:25:53 10° N
NOSS 2-2 (E) 4.3 11:16:22 10° NNW 11:21:08 76° NE 11:27:59 10° SE
SL-16 R/B 2.6 11:22:00 46° SW 11:23:16 54° WSW 11:29:22 10° NNW
Cosmos 1733 3.2 11:20:31 10° N 11:23:47 67° NNE 11:23:47 67° NNE
YAOGAN 6 4.1 11:22:28 10° NE 11:25:22 28° E 11:26:18 24° SE
CZ-4 R/B 3.8 11:22:52 10° NNE 11:27:39 79° ESE 11:29:06 44° S
BlueWalker 3 3.6 11:24:49 11° NW 11:28:07 33° NNE 11:31:37 10° E
Meteor 1-27 Rocket 3.8 11:29:05 46° SW 11:30:38 62° WNW 11:36:19 10° N
Thor Agena Rocket 4.3 11:25:52 10° NNE 11:30:44 49° E 11:34:23 17° S
EO 1 Delta rocket 3.7 11:26:16 10° N 11:30:55 82° WNW 11:32:15 47° SSW
Cosmos 1943 Rocket 2.7 11:25:57 10° NNW 11:31:34 59° ENE 11:37:09 10° SE
Meteor 2-4 Rocket 4.1 11:30:43 18° S 11:34:38 59° E 11:40:02 10° NNE
COSMOS 2428 3.8 11:34:36 27° WNW 11:35:38 29° NW 11:40:34 10° N
NOSS 2-2 (D) 4.3 11:31:07 10° NNW 11:35:48 73° NE 11:42:29 10° SE
CZ-2C R/B 4.1 11:40:13 20° WNW 11:40:13 20° WNW 11:42:53 10° NW
NOAA 11 4.4 11:34:42 10° NNE 11:40:09 71° ESE 11:44:06 19° S
ALOS 2.7 11:35:51 10° N 11:40:11 40° WNW 11:40:36 39° W
Cosmos 1340 Rocket 2.8 11:39:28 45° S 11:40:31 75° E 11:44:22 10° NNE
Cosmos 1627 Rocket 4.5 11:37:44 32° SSW 11:40:43 67° W 11:47:04 10° N
Sich 1 3.4 11:37:50 10° NNW 11:41:30 42° WNW 11:41:30 42° WNW
Cosmos 2237 Rocket 2.3 11:40:21 40° SW 11:42:16 61° WNW 11:47:54 10° NNE
Lacrosse 5 4.2 11:40:04 10° NW 11:43:10 16° NNW 11:46:17 10° NNE
Cosmos 1980 3.9 11:41:44 38° WSW 11:43:36 56° WNW 11:49:10 10° NNE
Cosmos 2112 Rocket 4.0 11:41:26 29° SSW 11:44:13 82° ESE 11:49:35 10° NNE
Cosmos 1867 3.8 11:39:21 10° NW 11:44:33 44° WSW 11:49:40 10° S
CZ-2C R/B 4.2 11:40:50 10° NNW 11:45:00 26° WNW 11:45:34 25° WNW
Cosmos 1805 3.2 11:42:00 10° N 11:45:44 73° E 11:48:22 18° SSE
Meteor 1-11 Rocket 4.2 11:42:41 10° NNW 11:47:44 36° W 11:48:36 34° WSW
Cosmos 1328 Rocket 3.8 11:45:31 20° S 11:48:30 68° E 11:52:55 10° NNE
Resurs 1-4 Rocket 4.0 11:49:15 10° NNW 11:51:44 13° WNW 11:52:18 13° WNW
Cosmos 1743 Rocket 4.1 11:47:50 10° NNW 11:51:42 36° W 11:51:42 36° W
